Hourly Data Report for October 21, 2013

All times are specified in Local Standard Time (LST). Add 1 hour to adjust for Daylight Saving Time where and when it is observed.

CAPE DORSET A
NUNAVUT

64°13'49.000" N
76°31'30.000" W
48.20 m
2400637
71366
YTE

Download Data

Hourly Data (October 2013)
Hourly Data Report for October 21, 2013
Temp Definition
°C
Dew Point Temp Definition
°C
Rel Hum Definition
%
Wind Dir Definition
10's deg

Wind Spd Definition
km/h
Visibility Definition
km
Stn Press Definition
kPa
Hmdx Definition


Wind Chill Definition


Weather Definition


TIME
00:00 Legend Double Dagger 0.8 0.4 97 9 28 16.1 100.97     LegendNANA
01:00 Legend Double Dagger 0.5 0.2 98 10 26 0.8 100.97     LegendNANA
02:00 Legend Double Dagger 0.3 0.2 99 9 26 1.2 100.98     LegendNANA
03:00 Legend Double Dagger 0.4 0.3 99 8 26 1.2 100.99     LegendNANA
04:00 Legend Double Dagger 0.6 0.5 99 7 22 0.6 100.98     LegendNANA
05:00 Legend Double Dagger 0.8 0.7 99 6 22 0.6 101.00     LegendNANA
06:00 Legend Double Dagger 1.0 0.9 99 7 28 16.1 100.97     LegendNANA
07:00 Legend Double Dagger 1.1 0.7 97 8 28 16.1 100.98     LegendNANA
08:00 Legend Double Dagger 1.4 0.7 95 7 26 16.1 100.98     LegendNANA
09:00 Legend Double Dagger 1.5 0.6 94 7 18 16.1 100.99     LegendNANA
10:00 Legend Double Dagger 0.9 0.3 96 9 22 8.1 100.99     LegendNANA
11:00 Legend Double Dagger 1.1 0.2 94 7 22 12.9 100.98     LegendNANA
12:00 Legend Double Dagger 1.3 0.4 94 7 21 16.1 100.95     LegendNANA
13:00 Legend Double Dagger 1.4 0.3 92 8 21 16.1 100.95     LegendNANA
14:00 Legend Double Dagger 1.2 0.3 94 8 21 16.1 100.95     LegendNANA
15:00 Legend Double Dagger 0.7 0.3 97 10 26 11.3 100.95     LegendNANA
16:00 Legend Double Dagger 0.4 0.1 98 10 32 0.4 100.94     LegendNANA
17:00 Legend Double Dagger 0.0 -0.1 99 10 26 0.2 100.94   -6 LegendNANA
18:00 Legend Double Dagger 0.0 -0.1 99 9 22 0.6 100.94   -6 LegendNANA
19:00 Legend Double Dagger 0.1 0.0 99 10 26 0.6 100.93     LegendNANA
20:00 Legend Double Dagger 0.1 0.0 99 9 28 1.0 100.93     LegendNANA
21:00 Legend Double Dagger 0.2 0.1 99 9 22 1.0 100.92     LegendNANA
22:00 Legend Double Dagger 0.2 0.1 99 9 22 0.6 100.91     LegendNANA
23:00 Legend Double Dagger 0.1 0.0 99 10 24 0.6 100.89     LegendNANA

Notes on Data Quality.

Legend

  • E = Estimated
  • M = Missing
  • NA = Not Available
  • ‡ = Partner data that is not subject to review by the National Climate Archives
Date modified: